Simultaneous Nadir Overpasses (SNOs) Predictions

Prediction of SNOs between NOAA-19 and TERRA Satellite Orbit:

Table of predicted SNOs for the next 14.0 days since TLE Epoch: 10/22/2011
Index Date Time (NOAA-19) NOAA-19 Lat,Lon TERRA Lat,Lon Distance(km) Time Diff (sec)
1 10/23/2011 01:15:59 -69.30, -20.31 -69.19, -19.65 28.87 71
2 10/23/2011 02:06:49 68.84, 147.60 68.86, 147.58 3.30 8
3 10/23/2011 02:57:35 -67.71, -43.71 -67.74, -46.14 102.70 66
4 10/25/2011 05:10:32 71.48, 97.70 71.39, 104.87 254.02 49
5 10/25/2011 06:00:51 -68.96, -91.08 -68.97, -91.02 2.34 42
6 10/25/2011 06:51:47 68.81, 76.39 68.81, 76.42 1.69 46
7 10/25/2011 07:42:04 -66.13,-113.10 -66.17,-118.92 261.52 48
8 10/27/2011 09:55:02 70.00, 28.93 69.89, 31.50 98.98 66
9 10/27/2011 10:45:48 -68.90,-162.23 -68.89,-162.20 1.88 6
10 10/27/2011 11:36:38 68.42, 5.67 68.50, 4.96 30.15 72
11 10/29/2011 13:49:44 -72.22, 146.54 -72.17, 156.39 334.62 37
12 10/29/2011 14:39:41 68.99, -40.82 69.01, -40.77 3.09 63
13 10/29/2011 15:30:45 -68.85, 126.60 -68.84, 126.66 2.42 30
14 10/29/2011 16:21:09 67.01, -63.82 67.11, -67.74 170.16 59
15 10/31/2011 18:34:12 -70.68, 78.09 -70.59, 82.70 170.29 59
16 10/31/2011 19:24:38 68.93,-111.99 68.94,-111.95 1.95 28
17 10/31/2011 20:15:40 -68.75, 55.49 -68.78, 55.48 3.18 64
18 10/31/2011 21:05:37 65.38,-133.27 65.45,-140.52 335.35 37
19 11/02/2011 23:18:44 -69.39, 8.86 -69.29, 9.77 37.54 71
20 11/03/2011
